This is the latest recevied weather packets stored in our database for station/object W2JGA. If no packets are shown the sender has not sent any weather packets the latest 10 day(s).
| Time | Temp. | Humidity | Pressure | Rain* | Wind** | Luminosity | Snow |
|---|---|---|---|---|---|---|---|
| 1777573506 | 27.78° C | 18% | 1012.9 hPa | 0 mm | - | 684 W/m² | - |
| 1777573203 | 27.78° C | 18% | 1012.9 hPa | 0 mm | - | 655 W/m² | - |
| 1777572899 | 27.22° C | 18% | 1012.9 hPa | 0 mm | - | 635 W/m² | - |
| 1777572595 | 27.78° C | 18% | 1012.9 hPa | 0 mm | - | 670 W/m² | - |
| 1777572294 | 27.78° C | 18% | 1013.2 hPa | 0 mm | - | 714 W/m² | - |
| 1777571991 | 27.78° C | 19% | 1013.2 hPa | 0 mm | - | 771 W/m² | - |
| 1777571685 | 27.78° C | 19% | 1013.6 hPa | 0 mm | - | 770 W/m² | - |
| 1777571384 | 28.33° C | 18% | 1013.6 hPa | 0 mm | - | 765 W/m² | - |
| 1777571080 | 27.22° C | 19% | 1013.2 hPa | 0 mm | - | 771 W/m² | - |
| 1777570775 | 27.22° C | 19% | 1013.6 hPa | 0 mm | - | 733 W/m² | - |
| 1777570472 | 27.22° C | 20% | 1013.9 hPa | 0 mm | - | 775 W/m² | - |
| 1777570168 | 27.78° C | 20% | 1013.6 hPa | 0 mm | - | 582 W/m² | - |
| 1777569864 | 27.22° C | 18% | 1013.9 hPa | 0 mm | - | 755 W/m² | - |
| 1777569560 | 26.67° C | 20% | 1013.9 hPa | 0 mm | - | 651 W/m² | - |
| 1777569257 | 25.56° C | 25% | 1013.6 hPa | 0 mm | - | 711 W/m² | - |
| 1777568953 | 25.56° C | 24% | 1013.9 hPa | 0 mm | - | 327 W/m² | - |
| 1777568650 | 25.56° C | 24% | 1013.9 hPa | 0 mm | - | 338 W/m² | - |
| 1777568347 | 25° C | 25% | 1013.9 hPa | 0 mm | - | 316 W/m² | - |
| 1777568044 | 24.44° C | 25% | 1013.9 hPa | 0 mm | - | 412 W/m² | - |
| 1777567740 | 24.44° C | 25% | 1013.9 hPa | 0 mm | - | 297 W/m² | - |
| 1777567437 | 23.89° C | 25% | 1014.3 hPa | 0 mm | - | 297 W/m² | - |
| 1777567135 | 23.89° C | 25% | 1013.9 hPa | 0 mm | - | 257 W/m² | - |
| 1777566833 | 23.33° C | 26% | 1013.9 hPa | 0 mm | - | 258 W/m² | - |
| 1777566530 | 22.78° C | 26% | 1013.9 hPa | 0 mm | - | 308 W/m² | - |
| 1777566228 | 22.78° C | 26% | 1013.9 hPa | 0 mm | - | 208 W/m² | - |
* Rain latest hour (hover to see other rain measurements)
** Current wind speed in m/s (hover to see current wind gust speed)